Location: Sternwarte Stuttgart
(48.7670°N, 9.1830°E)
Time: 05:19:37
(UTC+01:00)

Cosmos 494 Rocket - Pass Details

Date: 24 January 2019
Orbit: 743 x 770 km, 74.1° (Epoch: 21 February)

Event Time Altitude Azimuth Distance (km) Brightness Sun altitude
Exits shadow 05:54:15 46° 285° (WNW) 1,018 4.2 -21.0°
Maximum altitude 05:54:39 47° 300° (WNW) 1,004 4.2 -21.0°
Drops below altitude 10° 05:59:41 10° 14° (NNE) 2,296 6.5 -20.1°
Sets 06:02:09 0° 20° (NNE) 3,221 7.4 -19.7°
